Weather History for Las Vegas, NV

Change the Weather History Date:

Sunday, July 28, 2013

  Actual Average Record
Temperature  
Mean Temperature 87 °F 93 °F  
Max Temperature 95 °F 104 °F 114 °F (1980)
Min Temperature 79 °F 81 °F 61 °F (1984)
Degree Days  
Heating Degree Days 0 0  
Month to date heating degree days 0 0  
Since 1 June heating degree days 0 1  
Since 1 July heating degree days 0 0  
Cooling Degree Days 22 28  
Month to date cooling degree days 833 771  
Year to date cooling degree days 2327 1971  
Since 1 June cooling degree days 1637 1421  
Growing Degree Days 36 (Base 50)    
Moisture  
Dew Point 58 °F    
Average Humidity 39    
Maximum Humidity 51    
Minimum Humidity 26    
Precipitation  
Precipitation T in 0.02 in 1.36 in (1984)
Month to date precipitation 0.30 0.35  
Year to date precipitation 0.91 2.43  
Snow  
Snow 0.00 in 0.00 in 0.00 in ()
Month to date snowfall 0.0 0.0  
Since 1 June snowfall 0.0 0.0  
Since 1 July snowfall 0.0 0.0  
Snow Depth 0.00 in    
Sea Level Pressure  
Sea Level Pressure 29.74 in    
Wind  
Wind Speed 9 mph (SSW)    
Max Wind Speed 40 mph    
Max Gust Speed 51 mph    
Visibility 10 miles    
Events Rain , Thunderstorm    
T = Trace of Precipitation, MM = Missing Value Source: NWS Daily Summary

Daily Weather History Graph

Daily Weather History Graph

Search for Another Location

Airport:

Trip Planner

Search our weather history database for the weather conditions in past years. The results will help you decide how hot, cold, wet, or windy it might be!

Date:

Astronomy

Jul. 28, 2013 Rise Set
Actual Time 5:44 AM PDT 7:48 PM PDT
Civil Twilight 5:16 AM PDT 8:17 PM PDT
Nautical Twilight 4:41 AM PDT 8:52 PM PDT
Astronomical Twilight 4:04 AM PDT 9:29 PM PDT
Moon 11:28 PM PDT (7/28) 12:16 PM PDT (7/28)
Length of Visible Light 15h 00m
Length of Day
14h 03m
Waning Gibbous, 60% of the Moon is Illuminated
Jul 28
Waning Gibbous
Jul 29
Last Quarter
Aug 6
New
Aug 14
First Quarter
Aug 20
Full

Hourly Weather History & Observations

Time (PDT) Temp. Heat Index Dew Point Humidity Pressure Visibility Wind Dir Wind Speed Gust Speed Precip Events Conditions
12:56 AM 84.9 °F 84.8 °F 60.1 °F 43% 29.70 in 10.0 mi South 3.5 mph - N/A   Partly Cloudy
1:56 AM 82.9 °F 83.3 °F 61.0 °F 47% 29.73 in 10.0 mi SSW 8.1 mph - N/A   Clear
2:56 AM 82.9 °F 82.8 °F 59.0 °F 44% 29.73 in 10.0 mi SW 5.8 mph - N/A   Clear
3:56 AM 82.0 °F 82.4 °F 60.1 °F 47% 29.73 in 10.0 mi Calm Calm - N/A   Clear
4:56 AM 81.0 °F 81.7 °F 61.0 °F 50% 29.74 in 10.0 mi SSW 8.1 mph - N/A   Partly Cloudy
5:56 AM 81.0 °F 81.7 °F 61.0 °F 50% 29.75 in 10.0 mi South 5.8 mph - N/A   Partly Cloudy
6:56 AM 82.0 °F 82.1 °F 59.0 °F 45% 29.76 in 10.0 mi South 5.8 mph - N/A   Partly Cloudy
7:56 AM 82.9 °F 83.2 °F 60.1 °F 46% 29.77 in 10.0 mi South 5.8 mph - N/A   Partly Cloudy
8:56 AM 87.1 °F 86.7 °F 60.1 °F 40% 29.77 in 10.0 mi South 4.6 mph - N/A   Partly Cloudy
9:56 AM 89.1 °F 88.2 °F 59.0 °F 36% 29.76 in 10.0 mi SSW 3.5 mph - N/A   Scattered Clouds
10:56 AM 93.0 °F 92.0 °F 57.9 °F 31% 29.74 in 10.0 mi SSW 3.5 mph - N/A   Scattered Clouds
11:56 AM 95.0 °F 93.7 °F 57.0 °F 28% 29.72 in 10.0 mi Calm Calm - N/A   Scattered Clouds
12:56 PM 93.9 °F 92.2 °F 55.9 °F 28% 29.71 in 10.0 mi SSE 6.9 mph - N/A   Mostly Cloudy
1:51 PM 87.8 °F 87.6 °F 60.8 °F 40% 29.82 in 10.0 mi SW 26.5 mph 34.5 mph N/A Thunderstorm Thunderstorm
1:56 PM 86.0 °F 85.7 °F 60.1 °F 41% 29.75 in 10.0 mi SW 21.9 mph 34.5 mph N/A Thunderstorm Thunderstorm
2:56 PM 82.9 °F 84.4 °F 64.0 °F 53% 29.72 in 10.0 mi SSW 13.8 mph - 0.00 in Rain , Thunderstorm Light Thunderstorms and Rain
3:56 PM 87.1 °F 86.7 °F 60.1 °F 40% 29.69 in 10.0 mi SSW 13.8 mph - 0.00 in   Mostly Cloudy
4:56 PM 91.9 °F 90.6 °F 57.0 °F 31% 29.67 in 10.0 mi South 6.9 mph - N/A   Mostly Cloudy
5:56 PM 93.9 °F 91.4 °F 53.1 °F 25% 29.68 in 10.0 mi WNW 6.9 mph - N/A   Mostly Cloudy
6:56 PM 88.0 °F - 48.9 °F 26% 29.71 in 10.0 mi NNW 29.9 mph 42.6 mph N/A   Mostly Cloudy
7:56 PM 82.9 °F 81.8 °F 53.1 °F 36% 29.73 in 10.0 mi NNW 18.4 mph 36.8 mph N/A   Mostly Cloudy
8:56 PM 78.8 °F - 55.4 °F 44% 29.73 in 10.0 mi WNW 15.0 mph - N/A   Mostly Cloudy
9:32 PM 80.6 °F 80.5 °F 55.4 °F 42% 29.83 in 10.0 mi South 10.4 mph - N/A Thunderstorm Thunderstorm
9:56 PM 80.1 °F 80.1 °F 55.0 °F 42% 29.75 in 10.0 mi ESE 13.8 mph 21.9 mph N/A Thunderstorm Thunderstorm
10:22 PM 80.6 °F 80.5 °F 55.4 °F 42% 29.81 in 10.0 mi NE 10.4 mph - 0.00 in   Mostly Cloudy
10:56 PM 81.0 °F 80.8 °F 55.9 °F 42% 29.74 in 10.0 mi West 5.8 mph - 0.00 in   Mostly Cloudy
11:56 PM 80.1 °F 80.4 °F 57.0 °F 45% 29.75 in 10.0 mi South 6.9 mph - N/A   Partly Cloudy